[[{"header":{"parameterUnit":"m.s-1","parameterCategory":1,"la1":30.2991,"la2":30.254,"lo1":-89.0895,"lo2":-89.0444,"dy":0.0017,"dx":0.0017,"nx":28,"ny":28,"refTime":"2023-07-18T21:00:00:Z","depth":0,"parameterNumber":2,"parameterNumberName":"U-component_of_WINDS"},"data":[0,0,0,0,0,0,0,0,0,0,0,0,0,0,0,0,0,0,0,0,0,0,0,0,0,0,0,0,0,0,0,0,0,0,0,0,0,0,0,0,0,0,0,0,0,0,0,0,0,0,0,0,0,0,0,0,0,0,1.3885,1.3885,0,1.3883,1.3883,1.3883,1.3834,1.3833,1.3832,1.383,1.383,1.3831,1.3832,0,0,0,0,0,0,0,0,0,0,0,0,0,1.3847,1.3847,1.3885,1.3885,1.3885,1.3883,1.3883,1.3883,1.3834,1.3833,1.3831,1.383,1.383,1.3831,1.3832,0,0,0,0,0,0,0,0,0,0,0,0,0,1.3856,1.3848,1.3885,1.386,1.3858,1.3883,1.3883,1.3883,1.3835,1.3833,1.3831,1.3829,1.3829,1.3831,1.3833,1.3881,0,0,1.3838,1.3839,0,0,0,0,0,0,0,0,1.3855,1.3857,1.3864,1.3862,1.3859,1.3857,1.3869,1.3882,1.3835,1.3844,1.383,1.3828,1.384,1.3841,1.3845,1.3881,1.3881,1.3838,1.3839,1.384,1.384,0,0,0,0,0,0,0,1.3855,1.3857,1.3884,1.3864,1.3861,1.3849,1.3849,1.3871,1.3853,1.3843,1.3839,1.384,1.3839,1.3843,1.3845,1.3881,1.3838,1.3839,1.3841,1.3841,1.3954,1.3955,0,0,0,0,0,0,1.3857,1.3857,1.3884,1.3884,1.3853,1.3852,1.3851,1.386,1.3852,1.3849,1.3841,1.3837,1.3841,1.3843,1.3844,1.3899,1.384,1.3841,1.3842,1.3952,1.3954,1.3956,0,0,0,0,0,0,1.3857,1.386,1.3884,1.3869,1.3871,1.3854,1.3865,1.386,1.3865,1.3851,1.3848,1.3849,1.384,1.3842,1.3871,1.3898,1.3842,1.3844,1.3949,1.3952,1.3955,1.4009,0,0,0,0,0,0,1.3856,1.386,1.3879,1.387,1.3872,1.3911,1.3866,1.3862,1.3868,1.3863,1.3858,1.3855,1.3839,1.3869,1.3873,1.3899,1.3845,1.3947,1.3951,1.3954,1.4004,1.4013,1.402,0,0,0,0,0,1.3855,1.3895,1.388,1.3883,1.3895,1.3913,1.3914,1.3894,1.387,1.3888,1.3879,1.3855,1.3895,1.3873,1.3877,1.3904,1.3945,1.395,1.3954,1.4001,1.4011,1.402,0,0,0,0,0,0,1.3908,1.3893,1.3877,1.3915,1.3915,1.3905,1.3927,1.3906,1.3914,1.3909,1.3884,1.3884,1.3917,1.3913,1.3889,1.3949,1.3916,1.3921,1.395,1.396,1.3967,1.3967,1.3847,0,0,0,0,0,1.3924,1.394,1.3926,1.3961,1.3962,1.3945,1.3952,1.3936,1.3936,1.3936,1.3929,1.393,1.3942,1.3951,1.3962,1.4004,1.4001,1.4024,1.4032,1.4039,1.4044,1.4064,1.4073,1.3971,1.3971,1.397,0,0,1.3958,1.3951,1.3963,1.3972,1.397,1.3986,1.3945,1.3965,1.3976,1.3939,1.3966,1.3961,1.396,1.3995,1.4011,1.3994,1.4071,1.4045,1.405,1.4051,1.4069,1.4079,1.4088,1.3974,1.3973,1.3973,0,0,1.4027,1.4024,1.4052,1.4051,1.4049,1.4036,1.4043,1.4035,1.403,1.4056,1.4028,1.4042,1.4064,1.4064,1.4067,1.4134,1.4112,1.4138,1.418,1.42,1.4208,1.4215,1.4237,1.4245,1.4143,1.4143,1.4144,0,1.4069,1.4092,1.4069,1.409,1.4094,1.406,1.4087,1.4088,1.4089,1.4093,1.4074,1.4099,1.4097,1.413,1.4147,1.4151,1.4157,1.4138,1.4208,1.4215,1.4221,1.4242,1.4251,1.4147,1.4146,1.4146,1.4146,0,1.4143,1.4159,1.4182,1.4183,1.419,1.4214,1.4195,1.4204,1.4188,1.4177,1.4204,1.4199,1.4207,1.4214,1.4199,1.4246,1.4235,1.4213,1.4178,1.4234,1.4254,1.4262,1.4151,1.415,1.4149,1.4148,0,0,1.4246,1.4232,1.4241,1.424,1.4234,1.4247,1.4269,1.4276,1.4284,1.4286,1.4303,1.4322,1.4301,1.4304,1.4288,1.4306,1.4357,1.4281,1.4281,1.4294,1.4406,1.4422,1.4431,1.4343,1.4344,1.4345,1.4405,0,1.4311,1.4347,1.4327,1.4366,1.438,1.4347,1.4366,1.4364,1.4355,1.4366,1.4355,1.4368,1.434,1.4341,1.4357,1.4347,1.4379,1.4343,1.4357,1.4358,1.4357,1.4442,1.4459,1.4516,1.4413,1.4414,1.4415,0,1.4392,1.4396,1.4436,1.4426,1.4431,1.4448,1.4452,1.4463,1.446,1.4452,1.4455,1.4434,1.4454,1.4421,1.4448,1.4424,1.4429,1.4425,1.4427,1.4426,1.4389,1.4442,1.4534,1.4542,1.4427,1.4426,1.4425,0,1.4461,1.4476,1.4501,1.4502,1.4491,1.4504,1.45,1.4495,1.45,1.4504,1.4506,1.4513,1.4516,1.4521,1.4503,1.4481,1.4532,1.4497,1.4525,1.4525,1.4536,1.4535,1.4628,1.4542,1.4542,1.4542,1.4541,0,1.4535,1.456,1.4532,1.4547,1.4574,1.455,1.4578,1.4571,1.4566,1.458,1.4552,1.4565,1.4541,1.4551,1.4537,1.4561,1.4563,1.4556,1.4552,1.4558,1.4558,1.456,1.4555,1.4544,1.4543,1.4543,1.4542,0,1.4616,1.4598,1.4623,1.461,1.4607,1.4628,1.4616,1.463,1.4618,1.4635,1.4638,1.462,1.463,1.4613,1.4622,1.4612,1.4644,1.4635,1.4645,1.4641,1.4669,1.4666,1.4765,1.4776,1.4684,1.4685,1.4686,0,1.4663,1.4682,1.467,1.4676,1.4674,1.4685,1.4689,1.4666,1.4672,1.4669,1.4682,1.469,1.4696,1.4714,1.4702,1.4708,1.4697,1.4732,1.4698,1.4703,1.4696,1.4694,1.4695,1.4738,1.4739,1.474,1.4741,0,1.4749,1.4739,1.4746,1.4749,1.4755,1.4757,1.4757,1.4764,1.4739,1.4747,1.4757,1.4761,1.4769,1.4777,1.478,1.4776,1.4754,1.4752,1.4758,1.4763,1.4768,1.4764,1.4662,1.4749,1.4748,1.4748,1.4747,1.4747,1.4814,1.4828,1.4821,1.4829,1.4826,1.4826,1.4838,1.4827,1.4835,1.4839,1.4825,1.4838,1.4833,1.4834,1.4832,1.4842,1.4827,1.4837,1.4839,1.4841,1.4844,1.4767,1.4843,1.4842,1.4842,1.4842,1.4842,0,1.4896,1.489,1.4898,1.4898,1.4904,1.4882,1.4881,1.4887,1.4898,1.4896,1.4901,1.4911,1.4918,1.4906,1.4911,1.4921,1.4911,1.4923,1.4922,1.4921,1.4859,1.4852,1.4931,1.4931,1.4931,1.4931,1.4931,1.4931,1.494,1.4962,1.4951,1.497,1.4964,1.4975,1.4976,1.4976,1.4973,1.4986,1.4991,1.4983,1.4976,1.498,1.4985,1.4982,1.4984,1.4999,1.4992,1.4934,1.4925,1.4917,1.491,1.5,1.5001,1.5053,1.5053,1.5054]},{"header":{"parameterUnit":"m.s-1","parameterCategory":1,"la1":30.2991,"la2":30.254,"lo1":-89.0895,"lo2":-89.0444,"dy":0.0017,"dx":0.0017,"nx":28,"ny":28,"refTime":"2023-07-18T21:00:00:Z","depth":0,"parameterNumber":3,"parameterNumberName":"V-component_of_WINDS"},"data":[0,0,0,0,0,0,0,0,0,0,0,0,0,0,0,0,0,0,0,0,0,0,0,0,0,0,0,0,0,0,0,0,0,0,0,0,0,0,0,0,0,0,0,0,0,0,0,0,0,0,0,0,0,0,0,0,0,0,4.2694,4.2696,0,4.2859,4.2861,4.2863,4.2875,4.2873,4.2872,4.287,4.303,4.3036,4.3042,0,0,0,0,0,0,0,0,0,0,0,0,0,4.2381,4.2386,4.2694,4.2696,4.2698,4.2859,4.2861,4.2863,4.2875,4.2873,4.2871,4.2869,4.3028,4.3035,4.3043,0,0,0,0,0,0,0,0,0,0,0,0,0,4.2528,4.2388,4.2693,4.2724,4.2728,4.2858,4.2861,4.2864,4.2876,4.2873,4.287,4.2868,4.3026,4.3035,4.3044,4.3152,0,0,4.3071,4.3075,0,0,0,0,0,0,0,0,4.252,4.254,4.2717,4.2722,4.2727,4.2844,4.2809,4.296,4.2877,4.2819,4.287,4.2867,4.297,4.2983,4.302,4.316,4.3167,4.3072,4.3077,4.3081,4.3083,0,0,0,0,0,0,0,4.251,4.2532,4.2759,4.272,4.2726,4.2726,4.2744,4.2838,4.2907,4.2824,4.2826,4.2845,4.2972,4.3011,4.3024,4.3169,4.3071,4.3079,4.3085,4.3088,4.3405,4.3408,0,0,0,0,0,0,4.2495,4.2524,4.2754,4.2764,4.2615,4.2734,4.2754,4.2809,4.2907,4.2919,4.2847,4.2845,4.2997,4.3013,4.3029,4.3163,4.3081,4.3089,4.3094,4.3402,4.3405,4.3409,0,0,0,0,0,0,4.2488,4.2515,4.2747,4.2644,4.2674,4.2742,4.2804,4.2814,4.2853,4.2924,4.2936,4.2876,4.2996,4.3017,4.3122,4.3168,4.3093,4.3101,4.3398,4.3403,4.3407,4.343,0,0,0,0,0,0,4.2479,4.2513,4.2557,4.2645,4.268,4.2839,4.2807,4.2819,4.2869,4.2868,4.2954,4.2965,4.2995,4.3109,4.3131,4.3179,4.3108,4.3394,4.34,4.3406,4.3425,4.3435,4.3443,0,0,0,0,0,4.2468,4.2555,4.2559,4.2587,4.2736,4.2842,4.2861,4.2897,4.2873,4.2916,4.2962,4.2962,4.316,4.3119,4.3144,4.3196,4.3391,4.3399,4.3405,4.3421,4.3433,4.3443,0,0,0,0,0,0,4.2467,4.2567,4.2573,4.2692,4.2759,4.2844,4.29,4.2908,4.2981,4.2976,4.3015,4.3034,4.3138,4.3177,4.313,4.3306,4.3273,4.3285,4.3276,4.3288,4.3296,4.3284,4.3116,0,0,0,0,0,4.2481,4.2562,4.2643,4.274,4.2774,4.2831,4.2879,4.2901,4.297,4.2998,4.3051,4.3116,4.3193,4.3243,4.3317,4.3431,4.3449,4.3479,4.3487,4.3494,4.3504,4.3566,4.358,4.3431,4.3431,4.3431,0,0,4.251,4.2575,4.2623,4.2742,4.2796,4.2876,4.2855,4.294,4.2999,4.301,4.3113,4.3154,4.3229,4.3339,4.339,4.3375,4.3549,4.3503,4.3508,4.3514,4.3574,4.3588,4.3601,4.3436,4.3435,4.3435,0,0,4.2604,4.2662,4.2749,4.2804,4.2888,4.2926,4.2946,4.3031,4.306,4.3165,4.3175,4.3243,4.3375,4.3428,4.3472,4.3586,4.3588,4.3608,4.3654,4.3713,4.3725,4.3736,4.3775,4.3789,4.3618,4.3618,4.3618,0,4.2629,4.2752,4.2792,4.2878,4.2929,4.2945,4.3032,4.3083,4.3185,4.3219,4.3201,4.3367,4.3419,4.3541,4.3569,4.3604,4.3627,4.3599,4.3721,4.3732,4.3742,4.378,4.3795,4.362,4.362,4.362,4.362,0,4.2778,4.2863,4.2923,4.3025,4.3082,4.3168,4.3218,4.3271,4.3287,4.3326,4.3431,4.3494,4.3581,4.3612,4.3628,4.3736,4.3724,4.3713,4.3681,4.3758,4.3794,4.3809,4.3623,4.3622,4.3622,4.3621,0,0,4.2876,4.2999,4.302,4.3066,4.316,4.3225,4.331,4.3398,4.3442,4.3512,4.3583,4.3694,4.3685,4.3735,4.3757,4.3809,4.3894,4.3792,4.3794,4.3808,4.4015,4.4022,4.4038,4.3896,4.3899,4.3902,4.4008,0,4.2979,4.3135,4.3173,4.3304,4.3382,4.3399,4.3473,4.3536,4.3575,4.3644,4.3684,4.3763,4.3745,4.3776,4.3829,4.3873,4.3936,4.3865,4.396,4.3963,4.394,4.4058,4.4065,4.4163,4.4023,4.4025,4.4027,0,4.3121,4.3197,4.3337,4.3421,4.3455,4.3521,4.3604,4.3671,4.3743,4.3766,4.3823,4.384,4.3926,4.389,4.4008,4.3959,4.4,4.4027,4.4032,4.4041,4.3999,4.4069,4.4195,4.4209,4.405,4.4048,4.4046,0,4.3177,4.3314,4.3416,4.3455,4.3554,4.36,4.3643,4.3713,4.3763,4.3835,4.3867,4.3947,4.399,4.405,4.4087,4.4058,4.4202,4.4169,4.4222,4.4221,4.4251,4.4248,4.4384,4.4278,4.4278,4.4278,4.4277,0,4.3288,4.3373,4.3442,4.3505,4.3599,4.3641,4.3732,4.3775,4.3837,4.3906,4.3924,4.3987,4.4032,4.4101,4.413,4.4223,4.4242,4.4262,4.4268,4.426,4.4257,4.4286,4.428,4.4282,4.4281,4.428,4.4279,0,4.3366,4.3417,4.3528,4.3614,4.3638,4.3704,4.3776,4.3835,4.3874,4.3961,4.3983,4.4043,4.4125,4.4168,4.427,4.4289,4.4393,4.4396,4.437,4.4372,4.4422,4.4416,4.4581,4.4604,4.4484,4.4485,4.4486,0,4.3434,4.35,4.3594,4.3643,4.3688,4.3766,4.3818,4.386,4.3913,4.4,4.4048,4.4132,4.4202,4.4331,4.4382,4.4459,4.4463,4.4516,4.4475,4.4464,4.4463,4.4458,4.4464,4.4523,4.4524,4.4525,4.4525,0,4.3548,4.3569,4.3646,4.3731,4.3793,4.3861,4.3928,4.3966,4.4019,4.4077,4.4163,4.4217,4.4322,4.4404,4.4485,4.4526,4.4534,4.4538,4.4554,4.4546,4.4528,4.4537,4.4388,4.4534,4.4533,4.4532,4.4532,4.4532,4.3622,4.3681,4.3757,4.3841,4.3896,4.3958,4.4019,4.4066,4.4139,4.423,4.425,4.434,4.4408,4.4519,4.4563,4.4632,4.4621,4.4644,4.465,4.4655,4.4657,4.4518,4.4647,4.4646,4.4646,4.4646,4.4646,0,4.3736,4.3786,4.3863,4.3957,4.4023,4.4028,4.4102,4.4155,4.4235,4.43,4.4368,4.4466,4.4546,4.4603,4.4683,4.4727,4.4733,4.4747,4.4743,4.4753,4.4663,4.464,4.4741,4.4741,4.4741,4.4741,4.4741,4.4741,4.3803,4.3904,4.3934,4.4061,4.411,4.4201,4.4242,4.4299,4.4351,4.446,4.4528,4.4566,4.4626,4.4712,4.4784,4.4798,4.4826,4.484,4.4854,4.4769,4.4759,4.4749,4.4728,4.4846,4.4846,4.4939,4.4939,4.494]}]]